Location: Bagnara
(41.0500°N, 14.7833°E)
Time: 14:30:49
(UTC+00:00)

Delta 2 Rocket - Pass Details

Date: 20 June 2021
Orbit: 416 x 801 km, 35.6° (Epoch: 31 July)

Event Time Altitude Azimuth Distance (km) Brightness Sun altitude
Exits shadow 02:08:34 19° 214° (SW) 1,295 4.6 -12.4°
Maximum altitude 02:10:34 29° 169° (S) 953 4.2 -12.1°
Drops below altitude 10° 02:13:52 10° 108° (ESE) 1,645 6.1 -11.7°
Sets 02:16:06 0° 96° (E) 2,470 7.2 -11.4°
